DAL1662 KSLC-KLAS

Flight info

Callsign DAL1662
Flight time 0h 59m
Altitude 36000
Route ARCHZ1 MLF STEWW CHOWW4
Aircraft A321/M-SDE3FGHIRWY/LB1

Departure

Time 2026-05-04 03:13
Airport Salt Lake City International Airport (KSLC)

Arrival

Time 2026-05-04 04:12
Airport Harry Reid International Airport (KLAS)
Time Latitude Longitude Altitude Speed Heading
2026-05-04 02:41 40.78654 -111.98264 4233 ft 0 kts 175°
2026-05-04 03:02 40.78673 -111.98266 4252 ft 4 kts 168°
2026-05-04 03:02 40.78698 -111.98277 4233 ft 4 kts 149°
2026-05-04 03:02 40.78716 -111.98299 4232 ft 4 kts 102°
2026-05-04 03:03 40.78718 -111.98310 4231 ft 1 kts 83°
2026-05-04 03:05 40.78717 -111.98310 4231 ft 0 kts 83°
2026-05-04 03:06 40.78718 -111.98304 4232 ft 5 kts 83°
2026-05-04 03:06 40.78721 -111.98267 4232 ft 22 kts 83°
2026-05-04 03:06 40.78740 -111.98059 4232 ft 39 kts 83°
2026-05-04 03:06 40.78753 -111.97908 4234 ft 14 kts 88°
2026-05-04 03:07 40.78754 -111.97784 4233 ft 13 kts 86°
2026-05-04 03:07 40.78728 -111.97692 4233 ft 10 kts 144°
2026-05-04 03:07 40.78674 -111.97671 4233 ft 7 kts 176°
2026-05-04 03:07 40.78631 -111.97668 4233 ft 5 kts 176°
2026-05-04 03:08 40.78597 -111.97665 4232 ft 5 kts 176°
2026-05-04 03:08 40.78491 -111.97654 4228 ft 38 kts 175°
2026-05-04 03:08 40.78314 -111.97630 4228 ft 16 kts 173°
2026-05-04 03:08 40.78209 -111.97618 4226 ft 14 kts 175°
2026-05-04 03:09 40.78114 -111.97607 4225 ft 13 kts 174°
2026-05-04 03:09 40.78029 -111.97596 4244 ft 11 kts 175°
2026-05-04 03:09 40.77957 -111.97589 4245 ft 12 kts 175°
2026-05-04 03:09 40.77867 -111.97536 4246 ft 17 kts 162°
2026-05-04 03:10 40.77790 -111.97517 4248 ft 9 kts 171°
2026-05-04 03:10 40.77738 -111.97512 4250 ft 9 kts 176°
2026-05-04 03:10 40.77653 -111.97503 4251 ft 16 kts 175°
2026-05-04 03:10 40.77510 -111.97487 4249 ft 19 kts 174°
2026-05-04 03:11 40.77472 -111.97474 4249 ft 0 kts 155°
2026-05-04 03:11 40.77457 -111.97455 4248 ft 4 kts 128°
2026-05-04 03:11 40.77453 -111.97418 4247 ft 7 kts 78°
2026-05-04 03:12 40.77490 -111.97347 4247 ft 10 kts 37°
2026-05-04 03:12 40.77549 -111.97328 4247 ft 11 kts 359°
2026-05-04 03:12 40.77821 -111.97350 4247 ft 78 kts 354°
2026-05-04 03:12 40.78588 -111.97442 4229 ft 143 kts 355°
2026-05-04 03:13 40.79749 -111.97556 4347 ft 184 kts 356°
2026-05-04 03:13 40.81043 -111.97692 5007 ft 194 kts 352°
2026-05-04 03:13 40.82315 -111.98644 5202 ft 235 kts 309°
2026-05-04 03:13 40.82914 -112.00771 5567 ft 266 kts 270°
2026-05-04 03:14 40.82442 -112.03196 6319 ft 281 kts 244°
2026-05-04 03:14 40.81517 -112.05497 6867 ft 285 kts 242°
2026-05-04 03:14 40.80572 -112.07814 7398 ft 288 kts 241°
2026-05-04 03:14 40.80074 -112.09035 7766 ft 288 kts 241°
2026-05-04 03:15 40.79214 -112.11140 8410 ft 289 kts 242°
2026-05-04 03:15 40.78283 -112.13496 9115 ft 291 kts 246°
2026-05-04 03:15 40.77570 -112.16000 9835 ft 292 kts 252°
2026-05-04 03:15 40.77005 -112.18603 10159 ft 309 kts 255°
2026-05-04 03:16 40.76451 -112.21430 10415 ft 325 kts 253°
2026-05-04 03:16 40.75520 -112.24171 10957 ft 330 kts 236°
2026-05-04 03:16 40.73977 -112.26413 11584 ft 333 kts 217°
2026-05-04 03:16 40.71952 -112.27884 12245 ft 335 kts 198°
2026-05-04 03:17 40.69675 -112.28524 12920 ft 337 kts 188°
2026-05-04 03:17 40.67348 -112.28973 13613 ft 339 kts 188°
2026-05-04 03:17 40.65006 -112.29435 14229 ft 341 kts 188°
2026-05-04 03:17 40.62650 -112.29909 14809 ft 344 kts 189°
2026-05-04 03:18 40.60298 -112.30388 15367 ft 347 kts 189°
2026-05-04 03:18 40.57904 -112.30876 15934 ft 350 kts 189°
2026-05-04 03:18 40.55511 -112.31549 16482 ft 353 kts 198°
2026-05-04 03:18 40.53161 -112.32524 17045 ft 356 kts 198°
2026-05-04 03:19 40.50783 -112.33502 17617 ft 359 kts 198°
2026-05-04 03:19 40.48384 -112.34484 18171 ft 362 kts 198°
2026-05-04 03:19 40.45968 -112.35469 18665 ft 365 kts 198°
2026-05-04 03:19 40.43535 -112.36462 19166 ft 367 kts 199°
2026-05-04 03:20 40.41079 -112.37463 19662 ft 370 kts 199°
2026-05-04 03:20 40.38618 -112.38466 20156 ft 372 kts 199°
2026-05-04 03:20 40.36146 -112.39473 20669 ft 373 kts 199°
2026-05-04 03:20 40.33648 -112.40493 21164 ft 375 kts 199°
2026-05-04 03:21 40.31152 -112.41510 21646 ft 377 kts 199°
2026-05-04 03:21 40.28638 -112.42531 22113 ft 379 kts 199°
2026-05-04 03:21 40.26103 -112.43561 22569 ft 382 kts 199°
2026-05-04 03:21 40.23577 -112.44585 23019 ft 384 kts 199°
2026-05-04 03:22 40.21018 -112.45622 23460 ft 386 kts 199°
2026-05-04 03:22 40.18463 -112.46730 23836 ft 387 kts 203°
2026-05-04 03:22 40.16045 -112.48291 24210 ft 388 kts 209°
2026-05-04 03:22 40.13664 -112.49979 24602 ft 389 kts 209°
2026-05-04 03:23 40.11280 -112.51665 24982 ft 391 kts 208°
2026-05-04 03:23 40.08883 -112.53353 25356 ft 392 kts 208°
2026-05-04 03:23 40.06467 -112.55055 25726 ft 394 kts 208°
2026-05-04 03:23 40.04049 -112.56756 26087 ft 395 kts 208°
2026-05-04 03:24 40.01621 -112.58464 26450 ft 397 kts 208°
2026-05-04 03:24 39.99211 -112.60154 26803 ft 398 kts 208°
2026-05-04 03:24 39.96765 -112.61868 27166 ft 400 kts 208°
2026-05-04 03:24 39.94308 -112.63588 27516 ft 402 kts 208°
2026-05-04 03:25 39.91842 -112.65312 27889 ft 403 kts 208°
2026-05-04 03:25 39.89376 -112.67029 28341 ft 401 kts 208°
2026-05-04 03:25 39.86912 -112.68744 28733 ft 402 kts 208°
2026-05-04 03:25 39.84443 -112.70464 29094 ft 403 kts 208°
2026-05-04 03:26 39.81969 -112.72191 29423 ft 404 kts 208°
2026-05-04 03:26 39.79485 -112.73928 29748 ft 406 kts 208°
2026-05-04 03:26 39.76994 -112.75669 30027 ft 407 kts 208°
2026-05-04 03:26 39.74494 -112.77417 30269 ft 409 kts 208°
2026-05-04 03:27 39.71977 -112.79171 30516 ft 411 kts 208°
2026-05-04 03:27 39.69446 -112.80929 30735 ft 414 kts 207°
2026-05-04 03:27 39.66799 -112.82405 30962 ft 415 kts 198°
2026-05-04 03:27 39.64034 -112.83499 31254 ft 416 kts 198°
2026-05-04 03:28 39.61268 -112.84590 31609 ft 414 kts 198°
2026-05-04 03:28 39.58497 -112.85693 31757 ft 418 kts 198°
2026-05-04 03:28 39.55695 -112.86815 31786 ft 425 kts 198°
2026-05-04 03:29 39.49960 -112.89106 31787 ft 435 kts 198°
2026-05-04 03:29 39.44188 -112.91402 31780 ft 436 kts 198°
2026-05-04 03:30 39.38405 -112.93695 31783 ft 434 kts 198°
2026-05-04 03:30 39.32636 -112.95986 31756 ft 433 kts 198°
2026-05-04 03:31 39.26794 -112.97944 31763 ft 434 kts 194°
2026-05-04 03:31 39.20863 -112.99504 31760 ft 435 kts 193°
2026-05-04 03:32 39.14940 -113.01056 31761 ft 434 kts 194°
2026-05-04 03:32 39.09041 -113.02708 31761 ft 434 kts 194°
2026-05-04 03:33 39.03007 -113.03283 31762 ft 438 kts 182°
2026-05-04 03:33 38.96930 -113.03120 31761 ft 440 kts 182°
2026-05-04 03:34 38.90797 -113.02926 31768 ft 441 kts 182°
2026-05-04 03:34 38.84656 -113.02733 31767 ft 441 kts 182°
2026-05-04 03:35 38.78516 -113.02551 31766 ft 441 kts 183°
2026-05-04 03:35 38.72378 -113.02372 31789 ft 441 kts 183°
2026-05-04 03:36 38.66235 -113.02195 31870 ft 441 kts 183°
2026-05-04 03:36 38.60099 -113.02021 31904 ft 441 kts 183°
2026-05-04 03:37 38.53957 -113.01840 31943 ft 443 kts 184°
2026-05-04 03:37 38.47775 -113.01661 31952 ft 445 kts 184°
2026-05-04 03:38 38.41585 -113.01479 31952 ft 445 kts 184°
2026-05-04 03:38 38.35404 -113.01407 31945 ft 446 kts 190°
2026-05-04 03:38 38.32401 -113.02193 31948 ft 438 kts 202°
2026-05-04 03:39 38.29525 -113.03471 31934 ft 438 kts 203°
2026-05-04 03:39 38.23809 -113.06148 31909 ft 438 kts 204°
2026-05-04 03:40 38.18109 -113.08930 31888 ft 437 kts 205°
2026-05-04 03:40 38.12423 -113.11711 31850 ft 438 kts 206°
2026-05-04 03:41 38.06754 -113.14452 31857 ft 434 kts 207°
2026-05-04 03:41 38.01117 -113.17159 31868 ft 433 kts 207°
2026-05-04 03:42 37.95522 -113.19839 31923 ft 433 kts 207°
2026-05-04 03:42 37.89883 -113.22554 31950 ft 433 kts 207°
2026-05-04 03:43 37.84272 -113.25232 31967 ft 428 kts 208°
2026-05-04 03:43 37.78709 -113.27884 31978 ft 426 kts 208°
2026-05-04 03:44 37.73190 -113.30514 31979 ft 426 kts 208°
2026-05-04 03:44 37.67643 -113.33162 31968 ft 425 kts 208°
2026-05-04 03:44 37.64921 -113.34455 31954 ft 409 kts 208°
2026-05-04 03:45 37.63169 -113.35281 31929 ft 401 kts 208°
2026-05-04 03:45 37.58016 -113.37726 31927 ft 393 kts 209°
2026-05-04 03:46 37.52898 -113.40173 31898 ft 392 kts 209°
2026-05-04 03:46 37.47790 -113.42604 31873 ft 392 kts 209°
2026-05-04 03:47 37.42681 -113.45017 31854 ft 391 kts 209°
2026-05-04 03:47 37.37584 -113.47418 31844 ft 391 kts 210°
2026-05-04 03:48 37.32477 -113.49830 31827 ft 392 kts 210°
2026-05-04 03:48 37.27376 -113.52230 31830 ft 391 kts 210°
2026-05-04 03:49 37.22322 -113.54714 31850 ft 388 kts 212°
2026-05-04 03:49 37.17449 -113.57566 31858 ft 385 kts 214°
2026-05-04 03:50 37.14456 -113.59401 31829 ft 385 kts 214°
2026-05-04 03:50 37.09648 -113.62299 31531 ft 378 kts 214°
2026-05-04 03:50 37.07260 -113.63700 30983 ft 376 kts 213°
2026-05-04 03:51 37.04897 -113.65071 30520 ft 373 kts 214°
2026-05-04 03:51 37.02554 -113.66424 30046 ft 369 kts 214°
2026-05-04 03:51 37.00265 -113.67751 29529 ft 366 kts 214°
2026-05-04 03:51 36.97960 -113.69092 28928 ft 364 kts 213°
2026-05-04 03:52 36.95674 -113.70424 28344 ft 362 kts 213°
2026-05-04 03:52 36.93403 -113.71748 27769 ft 359 kts 212°
2026-05-04 03:52 36.91145 -113.73068 27205 ft 358 kts 212°
2026-05-04 03:52 36.88896 -113.74384 26608 ft 356 kts 212°
2026-05-04 03:53 36.86660 -113.75691 26095 ft 353 kts 211°
2026-05-04 03:53 36.84433 -113.76991 25590 ft 351 kts 211°
2026-05-04 03:53 36.82222 -113.78280 25094 ft 350 kts 210°
2026-05-04 03:53 36.80026 -113.79558 24627 ft 347 kts 210°
2026-05-04 03:54 36.77839 -113.80831 24386 ft 348 kts 210°
2026-05-04 03:54 36.75641 -113.82113 24159 ft 349 kts 209°
2026-05-04 03:54 36.73443 -113.83390 23923 ft 348 kts 209°
2026-05-04 03:54 36.71278 -113.84646 23700 ft 348 kts 209°
2026-05-04 03:55 36.69082 -113.85920 23470 ft 346 kts 208°
2026-05-04 03:55 36.66910 -113.87175 23070 ft 341 kts 208°
2026-05-04 03:55 36.64768 -113.88413 22584 ft 337 kts 208°
2026-05-04 03:55 36.62652 -113.89638 22138 ft 334 kts 209°
2026-05-04 03:56 36.60568 -113.90874 21696 ft 328 kts 213°
2026-05-04 03:56 36.58715 -113.92480 21262 ft 322 kts 223°
2026-05-04 03:56 36.57207 -113.94504 20833 ft 318 kts 233°
2026-05-04 03:56 36.55871 -113.96687 20405 ft 315 kts 232°
2026-05-04 03:57 36.54544 -113.98843 19984 ft 313 kts 232°
2026-05-04 03:57 36.53217 -114.00985 19537 ft 312 kts 231°
2026-05-04 03:57 36.51892 -114.03113 19122 ft 311 kts 231°
2026-05-04 03:57 36.50591 -114.05197 18702 ft 310 kts 231°
2026-05-04 03:58 36.48272 -114.08922 17977 ft 311 kts 230°
2026-05-04 03:58 36.46964 -114.11023 17531 ft 311 kts 230°
2026-05-04 03:58 36.45646 -114.13143 17111 ft 309 kts 230°
2026-05-04 03:59 36.44330 -114.15259 16696 ft 308 kts 230°
2026-05-04 03:59 36.43023 -114.17355 16298 ft 306 kts 230°
2026-05-04 03:59 36.41727 -114.19431 16095 ft 302 kts 230°
2026-05-04 03:59 36.40438 -114.21496 15960 ft 303 kts 230°
2026-05-04 04:00 36.39147 -114.23562 15911 ft 302 kts 230°
2026-05-04 04:00 36.37849 -114.25622 15916 ft 303 kts 230°
2026-05-04 04:00 36.36546 -114.27673 15921 ft 303 kts 230°
2026-05-04 04:00 36.35236 -114.29723 15914 ft 303 kts 229°
2026-05-04 04:01 36.33927 -114.31767 15662 ft 303 kts 229°
2026-05-04 04:01 36.32626 -114.33801 15181 ft 305 kts 230°
2026-05-04 04:01 36.31314 -114.35857 14814 ft 303 kts 230°
2026-05-04 04:01 36.30009 -114.37894 14424 ft 301 kts 230°
2026-05-04 04:02 36.28748 -114.39802 14151 ft 297 kts 229°
2026-05-04 04:02 36.27444 -114.41797 13798 ft 296 kts 230°
2026-05-04 04:02 36.26169 -114.43801 13384 ft 297 kts 230°
2026-05-04 04:02 36.24893 -114.45818 12975 ft 295 kts 228°
2026-05-04 04:03 36.23668 -114.47742 12887 ft 270 kts 229°
2026-05-04 04:03 36.22560 -114.49467 12618 ft 246 kts 229°
2026-05-04 04:03 36.21507 -114.51088 12042 ft 238 kts 229°
2026-05-04 04:03 36.20477 -114.52662 11437 ft 232 kts 228°
2026-05-04 04:04 36.19464 -114.54208 10776 ft 230 kts 228°
2026-05-04 04:04 36.18459 -114.55741 10132 ft 229 kts 229°
2026-05-04 04:04 36.17469 -114.57258 9539 ft 224 kts 229°
2026-05-04 04:04 36.16514 -114.58718 9087 ft 217 kts 229°
2026-05-04 04:05 36.15547 -114.60197 8932 ft 224 kts 228°
2026-05-04 04:05 36.14558 -114.61708 8931 ft 227 kts 229°
2026-05-04 04:05 36.13530 -114.63273 8925 ft 244 kts 228°
2026-05-04 04:05 36.12410 -114.64974 8929 ft 262 kts 229°
2026-05-04 04:06 36.11269 -114.66710 8941 ft 250 kts 229°
2026-05-04 04:06 36.10239 -114.68289 8954 ft 222 kts 229°
2026-05-04 04:06 36.09301 -114.69729 8751 ft 214 kts 229°
2026-05-04 04:06 36.08373 -114.71146 8262 ft 211 kts 229°
2026-05-04 04:07 36.07635 -114.72676 8066 ft 206 kts 246°
2026-05-04 04:07 36.07283 -114.74413 8435 ft 210 kts 254°
2026-05-04 04:07 36.07048 -114.76283 8224 ft 229 kts 263°
2026-05-04 04:07 36.07113 -114.78187 8401 ft 215 kts 271°
2026-05-04 04:08 36.07285 -114.80198 8206 ft 261 kts 268°
2026-05-04 04:08 36.07344 -114.82433 8007 ft 255 kts 265°
2026-05-04 04:08 36.07352 -114.84558 7998 ft 240 kts 264°
2026-05-04 04:08 36.07352 -114.86563 8004 ft 230 kts 264°
2026-05-04 04:09 36.07352 -114.88540 8007 ft 231 kts 265°
2026-05-04 04:09 36.07354 -114.90535 8007 ft 231 kts 265°
2026-05-04 04:09 36.07358 -114.92507 7819 ft 229 kts 264°
2026-05-04 04:09 36.07359 -114.94471 7528 ft 228 kts 265°
2026-05-04 04:10 36.07361 -114.96430 7282 ft 224 kts 264°
2026-05-04 04:10 36.07360 -114.98422 6538 ft 243 kts 264°
2026-05-04 04:10 36.07360 -115.00547 5632 ft 257 kts 265°
2026-05-04 04:10 36.07363 -115.02794 4717 ft 264 kts 269°
2026-05-04 04:11 36.07366 -115.05084 3777 ft 268 kts 269°
2026-05-04 04:11 36.07367 -115.07354 3275 ft 257 kts 268°
2026-05-04 04:11 36.07369 -115.09429 3237 ft 223 kts 267°
2026-05-04 04:11 36.07383 -115.11219 2445 ft 200 kts 268°
2026-05-04 04:12 36.07350 -115.12757 2215 ft 161 kts 267°
2026-05-04 04:12 36.07394 -115.13937 2124 ft 102 kts 277°
2026-05-04 04:12 36.07524 -115.14352 2124 ft 1 kts 319°
2026-05-04 04:12 36.07525 -115.14352 2124 ft 0 kts 322°
2026-05-04 04:14 36.07489 -115.14341 2131 ft 0 kts 327°
2026-05-04 04:16 36.07501 -115.14442 2129 ft 0 kts 327°